Flag for Belgium Weather past 2 weeks in Namur, Belgium

Now
57 °F

Partly sunny.


Feels Like: 55 °F
Forecast: 49 / 59 °F
Wind: 9 mph from West

Location: Charleroi / Gosselies

Current Time: Sep 5, 2015 at 3:22:52 PM

Latest Report: Sep 5, 2015 at 2:50 PM


Visibility: N/A

Pressure: 30.09 "Hg

Humidity: 67%

Dew point: 46 °F

Location of NamurLocation

Historic Weather in Namur — Graph

°F

Namur temperature yesterday

Maximum temperature yesterday: 61 °F (at 2:50 PM)
Minimum temperature yesterday: 50 °F (at 1:50 AM)
Average temperature yesterday: 54 °F

Past Weeks' High & Low Weather Summary

 TemperatureHumidityPressure
High86 °F (Aug 30, 3:20 PM)100% (Aug 24, 3:20 AM)30.21 "Hg (Aug 24, 3:20 AM)
Low48 °F (Sep 3, 4:50 AM)34% (Aug 22, 5:50 PM)29.50 "Hg (Aug 24, 1:50 PM)
Average63 °F77%29.95 "Hg
* Reported Aug 21 1:20 PM — Sep 5 1:50 PM, Namur, Weather by CustomWeather, © 2015

Note: Actual official high and low records may vary slightly from our data, if they occured in-between our weather recording intervals... More about our weather records

Advertising

Namur weather history for previous 24 hours

 ConditionsComfort  
Time TempWeatherWind HumidityBarometerVisibility
1:50 PM
Sat, Sep 5
57 °FPassing clouds.12 mph72%30.09 "HgN/A
1:20 PM55 °FPassing clouds.8 mph82%30.09 "HgN/A
12:50 PM55 °FScattered clouds.7 mph82%30.09 "HgN/A
12:20 PM57 °FScattered clouds.8 mph72%30.09 "HgN/A
11:50 AM57 °FScattered clouds.9 mph77%30.09 "HgN/A
11:20 AM55 °FScattered clouds.10 mph82%30.09 "HgN/A
10:50 AM55 °FScattered clouds.8 mph82%30.09 "HgN/A
10:20 AM54 °FScattered clouds.8 mph88%30.07 "HgN/A
9:50 AM52 °FBroken clouds.9 mph88%30.07 "Hg4 mi
9:20 AM52 °FBroken clouds.8 mph88%30.07 "Hg4 mi
8:50 AM52 °FScattered clouds.9 mph88%30.07 "Hg4 mi
8:20 AM52 °FScattered clouds.8 mph88%30.07 "Hg4 mi
7:50 AM52 °FPassing clouds.8 mph88%30.04 "Hg6 mi
7:20 AM50 °FPassing clouds.9 mph94%30.04 "Hg6 mi
6:50 AM50 °FPassing clouds.9 mph94%30.04 "Hg6 mi
6:20 AM50 °FPassing clouds.8 mph94%30.04 "Hg4 mi
5:50 AM50 °FSprinkles. Partly cloudy.8 mph94%30.04 "Hg2 mi
5:20 AM50 °FLight rain. Passing clouds.8 mph94%30.04 "Hg4 mi
4:50 AM50 °FPassing clouds.9 mph94%30.04 "Hg5 mi
4:20 AM50 °FPassing clouds.8 mph94%30.04 "HgN/A
3:50 AM50 °FPassing clouds.9 mph94%30.04 "HgN/A
3:20 AM50 °FPassing clouds.8 mph94%30.04 "HgN/A
2:50 AM50 °FPassing clouds.8 mph88%30.04 "HgN/A
1:20 AM52 °FPassing clouds.9 mph88%30.04 "HgN/A
12:50 AM52 °FPassing clouds.8 mph88%30.04 "HgN/A
11:20 PM
Fri, Sep 4
52 °FPassing clouds.8 mph88%30.04 "HgN/A
10:50 PM54 °FPassing clouds.9 mph82%30.04 "HgN/A
10:20 PM52 °FPassing clouds.7 mph82%30.04 "HgN/A
9:50 PM54 °FPassing clouds.7 mph82%30.04 "HgN/A
9:20 PM52 °FPassing clouds.7 mph82%30.04 "HgN/A
8:50 PM54 °FPassing clouds.5 mph77%30.01 "HgN/A
8:20 PM55 °FPassing clouds.6 mph77%30.01 "HgN/A
7:50 PM55 °FPassing clouds.7 mph72%30.01 "HgN/A
7:20 PM55 °FPassing clouds.9 mph72%30.01 "HgN/A
6:50 PM57 °FPassing clouds.8 mph67%30.01 "HgN/A
6:20 PM57 °FPassing clouds.8 mph72%30.01 "HgN/A
5:50 PM57 °FPassing clouds.8 mph72%30.01 "HgN/A
5:20 PM57 °FPassing clouds.8 mph67%30.01 "HgN/A
4:50 PM55 °FPassing clouds.9 mph72%30.01 "HgN/A
4:20 PM59 °FPassing clouds.8 mph68%30.01 "HgN/A
3:50 PM61 °FPassing clouds.12 mph55%30.01 "HgN/A
3:20 PM61 °FPassing clouds.13 mph59%30.01 "HgN/A
Weather by CustomWeather, © 2015

See weather overviewHow to use our weather pages